Domov               UVHVVR             MKGP            O straneh              
ZDRAVSTVENO VARSTVO RASTLIN
  MREŽA AGROMET. POSTAJ
 ► PROGNOSTIČNA OBVESTILA
AGROMETEOROLOŠKI PODATKI -
ARSO
OBVLADOVANJE TVEGANJ ZARADI
NEUGODNIH VREMENSKIH RAZMER
  ► NARAVNE NESREČE
  ► SUŠA/MOČA
  ► NAMAKANJE
  ► ŽLED (gozdarstvo)
KARTOGRAFSKI PRIKAZI
SPLETNE POVEZAVE
PROJEKTI IN PUBLIKACIJE

AGROMETEOROLOŠKA MREŽA: VREMENSKE POSTAJE IN FENOLOŠKA OPAZOVANJA

Pregled podatkov za lokacijo Gabernik-Rogaška, meteorološka postaja 37800

Pregled senzorjev na lokaciji

ID Ime Zadnja
vrednost
Datum
zadnje
spremembe
Tip
senzorja
1828 Omočenost lista (U) 0 U 23.3.2019 00:30 A730WET
1829 Padavine (mm) 0 mm 23.3.2019 00:29 Rain-O-Matic
1827 Relativna vlaga 2 m (% RH) 47,25 % RH 23.3.2019 00:29 50YA
1826 Temperatura 2 m (°C) 9,04 °C 23.3.2019 00:29 50YA

Pregled podatkov zadnjih 24 ur

Zap.
št.
Datum in čas Gabernik-Rogaška
Omočenost
lista
Padavine Relativna
vlaga
2
m
Temperatura
2
m
1 22.3.2019 23:30 0 0 47,3 9
2 22.3.2019 23:00 0 0 45 9,6
3 22.3.2019 22:30 0 0 42,6 10,4
4 22.3.2019 22:00 0 0 40 10,8
5 22.3.2019 21:30 0 0 35,7 11,6
6 22.3.2019 21:00 0 0 33,5 12
7 22.3.2019 20:30 0 0 35,2 11,9
8 22.3.2019 20:00 0 0 34,4 12
9 22.3.2019 19:30 0 0 30,5 12,5
10 22.3.2019 19:00 0 0 29,2 13,2
11 22.3.2019 18:30 0 0 30,1 13,6
12 22.3.2019 18:00 0 0 29,1 14,2
13 22.3.2019 17:30 0 0 26,9 15,1
14 22.3.2019 17:00 0 0 24,4 16
15 22.3.2019 16:30 0 0 21,8 16,4
16 22.3.2019 16:00 0 0 22,7 16,9
17 22.3.2019 15:30 0 0 21,9 16,8
18 22.3.2019 15:00 0 0 26,8 17
19 22.3.2019 14:30 0 0 25,2 17,3
20 22.3.2019 14:00 0 0 30,4 16,7
21 22.3.2019 13:30 0 0 33,5 15,3
22 22.3.2019 13:00 0 0 36,4 14,9
23 22.3.2019 12:30 0 0 37,8 14
24 22.3.2019 12:00 0 0 39,6 13,2
25 22.3.2019 11:30 0 0 40,8 12,2
26 22.3.2019 11:00 0 0 42,8 10,9
27 22.3.2019 10:30 0 0 53,4 9,3
28 22.3.2019 10:00 0 0 61,4 7,7
29 22.3.2019 09:30 0 0 67,4 5,9
30 22.3.2019 09:00 0 0 70,5 4,5
31 22.3.2019 08:30 0 0 76,4 2,3
32 22.3.2019 08:00 1 0 75,2 1,9
33 22.3.2019 07:30 1 0 75,4 1,2
34 22.3.2019 07:00 2 0 72,9 1,5
35 22.3.2019 06:30 4 0 74,2 1,2
36 22.3.2019 06:00 10 0 77,6 0,8
37 22.3.2019 05:30 4 0 73,9 1,3
38 22.3.2019 05:00 2 0 72,7 1,5
39 22.3.2019 04:30 1 0 70,5 1,9
40 22.3.2019 04:00 2 0 72,4 1,6
41 22.3.2019 03:30 1 0 67,5 2,5
42 22.3.2019 03:00 0 0 66,5 2,8
43 22.3.2019 02:30 0 0 67 2,7
44 22.3.2019 02:00 0 0 64,4 3,2
45 22.3.2019 01:30 0 0 62,9 3,4
46 22.3.2019 01:00 0 0 57,3 4,7
47 22.3.2019 00:30 0 0 57,5 4,8
48 22.3.2019 00:00 0 0 58,9 4,6
© 2011 Ministrstvo za kmetijstvo, gozdarstvo in prehrano. Vse pravice pridržane.